contact:dominique.lefevre@mio.osupytheas.fr, maurice.libes@osupytheas.fr, didier.mallarino@osupytheas.fr
Project:EMSO http://www.emso-fr.org/EMSO-France
Depth: 2436.0 m
Title:EMSO Ligure Ouest : Data MII capteur AQUADOPP
Date,Latitude,Longitude,X_East,Y_North,Z_Up,Amplitude_X,Amplitude_Y,Amplitude_Z,Batterie,SoundSpeed,Heading,Pitch,Roll,Pressure,TIS,Speed,Direction
, degrees North, degrees East, m.s-1, m.s-1,m.s-1, 1, 1, 1, Volt, m.s-1, degree, degree, degree, dbar, degree_C, m.s-1, degree
2020-01-16T00:04:03,42.805,6.029,0.043,-0.002,-0.003,106.0,109.0,103.0,13.4,1505.3,323.6,-0.7,1.8,2470.302,13.31,0.043,92.7
2020-01-16T00:07:03,42.805,6.029,0.006,0.024,-0.029,107.0,109.0,103.0,13.4,1505.3,327.1,-0.7,1.8,2470.27,13.32,0.024,14.0
2020-01-16T00:10:03,42.805,6.029,0.021,0.013,-0.051,105.0,111.0,103.0,13.3,1505.3,326.2,-0.7,1.9,2470.266,13.33,0.024,58.2
2020-01-16T00:13:03,42.805,6.029,0.006,0.02,-0.043,104.0,108.0,101.0,13.4,1505.3,323.8,-0.7,1.8,2470.3,13.33,0.02,16.7
2020-01-16T00:16:03,42.805,6.029,0.012,0.0,-0.014,106.0,109.0,102.0,13.4,1505.3,327.2,-0.7,1.9,2470.27,13.33,0.012,90.0
2020-01-16T00:19:03,42.805,6.029,0.022,0.0,-0.036,104.0,111.0,102.0,13.4,1505.3,324.9,-0.7,1.8,2470.244,13.33,0.022,90.0
2020-01-16T00:22:03,42.805,6.029,0.006,-0.011,-0.02,106.0,108.0,103.0,13.4,1505.3,327.4,-0.7,1.8,2470.214,13.33,0.012,151.4
2020-01-16T00:25:03,42.805,6.029,0.017,-0.013,-0.007,106.0,110.0,102.0,13.3,1505.4,323.6,-0.7,1.8,2470.263,13.34,0.021,127.4
2020-01-16T00:28:03,42.805,6.029,0.019,0.009,0.008,103.0,108.0,101.0,13.4,1505.4,323.6,-0.7,1.8,2470.236,13.34,0.021,64.7
2020-01-16T00:31:03,42.805,6.029,0.014,0.0,-0.018,109.0,109.0,103.0,13.4,1505.4,327.0,-0.7,1.8,2470.295,13.34,0.014,90.0
2020-01-16T00:34:03,42.805,6.029,0.005,0.009,-0.013,105.0,109.0,102.0,13.4,1505.4,325.2,-0.7,1.9,2470.214,13.34,0.01,29.1
2020-01-16T00:37:03,42.805,6.029,0.04,0.01,-0.014,104.0,109.0,102.0,13.3,1505.4,326.7,-0.7,1.8,2470.253,13.34,0.041,76.0
2020-01-16T00:40:03,42.805,6.029,0.008,-0.004,-0.016,105.0,109.0,103.0,13.4,1505.4,327.0,-0.7,1.8,2470.215,13.34,0.008,116.6
2020-01-16T00:43:03,42.805,6.029,0.035,0.001,0.021,105.0,108.0,103.0,13.4,1505.4,325.0,-0.8,1.8,2470.236,13.34,0.035,88.4
2020-01-16T00:46:03,42.805,6.029,0.034,-0.008,-0.013,106.0,108.0,102.0,13.4,1505.4,323.9,-0.7,1.9,2470.215,13.34,0.034,103.2
2020-01-16T00:49:03,42.805,6.029,0.026,0.002,-0.014,105.0,108.0,102.0,13.4,1505.4,328.3,-0.7,1.9,2470.18,13.34,0.026,85.6
2020-01-16T00:52:03,42.805,6.029,0.021,-0.004,-0.043,105.0,111.0,103.0,13.4,1505.4,326.5,-0.7,1.9,2470.204,13.34,0.021,100.8
2020-01-16T00:55:03,42.805,6.029,0.008,0.005,-0.012,105.0,108.0,103.0,13.4,1505.4,327.5,-0.7,1.8,2470.21,13.34,0.009,58.0
2020-01-16T00:58:03,42.805,6.029,0.032,0.001,0.005,106.0,108.0,102.0,13.4,1505.4,326.8,-0.7,1.8,2470.201,13.34,0.032,88.2
2020-01-16T01:04:03,42.805,6.029,0.006,-0.015,-0.019,106.0,108.0,103.0,13.4,1505.3,323.2,-0.7,1.8,2470.276,13.32,0.016,158.2
2020-01-16T01:07:03,42.805,6.029,0.0,-0.002,-0.044,106.0,109.0,104.0,13.3,1505.3,326.7,-0.7,1.9,2470.263,13.32,0.002,180.0
2020-01-16T01:10:03,42.805,6.029,0.009,0.006,-0.022,107.0,109.0,103.0,13.4,1505.3,324.6,-0.7,1.8,2470.179,13.33,0.01,56.3
2020-01-16T01:13:03,42.805,6.029,0.009,0.003,-0.032,109.0,109.0,103.0,13.4,1505.3,324.9,-0.7,1.8,2470.269,13.33,0.009,71.6
2020-01-16T01:16:03,42.805,6.029,0.013,0.018,-0.013,106.0,108.0,106.0,13.4,1505.3,323.3,-0.7,1.9,2470.246,13.33,0.022,35.8
2020-01-16T01:19:03,42.805,6.029,0.014,-0.018,-0.01,104.0,108.0,102.0,13.4,1505.3,326.8,-0.7,1.8,2470.215,13.33,0.022,142.1
2020-01-16T01:22:03,42.805,6.029,0.014,-0.024,-0.023,106.0,108.0,103.0,13.3,1505.3,323.9,-0.7,1.8,2470.216,13.33,0.027,149.7
2020-01-16T01:25:03,42.805,6.029,0.01,0.004,-0.019,105.0,110.0,103.0,13.3,1505.3,322.7,-0.7,1.8,2470.229,13.33,0.01,68.2
2020-01-16T01:28:03,42.805,6.029,0.024,-0.007,-0.037,105.0,108.0,104.0,13.4,1505.3,325.0,-0.7,1.8,2470.216,13.33,0.025,106.3
2020-01-16T01:31:03,42.805,6.029,0.0,0.013,-0.049,107.0,107.0,102.0,13.4,1505.3,325.5,-0.8,1.8,2470.219,13.33,0.013,0.0
2020-01-16T01:34:03,42.805,6.029,-0.023,-0.011,-0.071,105.0,107.0,103.0,13.4,1505.3,326.5,-0.7,1.9,2470.232,13.33,0.025,244.4
2020-01-16T01:37:03,42.805,6.029,-0.021,0.004,-0.044,103.0,107.0,102.0,13.3,1505.3,327.8,-0.7,1.8,2470.215,13.33,0.021,280.8
2020-01-16T01:40:03,42.805,6.029,-0.003,0.003,-0.053,105.0,106.0,102.0,13.3,1505.3,327.3,-0.7,1.8,2470.21,13.33,0.004,315.0
2020-01-16T01:43:03,42.805,6.029,0.01,0.001,-0.053,105.0,109.0,102.0,13.4,1505.3,325.2,-0.7,1.8,2470.221,13.33,0.01,84.3
2020-01-16T01:46:03,42.805,6.029,0.017,-0.005,-0.02,105.0,107.0,102.0,13.4,1505.3,326.5,-0.7,1.8,2470.189,13.33,0.017,106.4
2020-01-16T01:52:03,42.805,6.029,0.03,0.0,-0.005,105.0,107.0,102.0,13.3,1505.3,325.6,-0.7,1.8,2470.242,13.31,0.03,90.0
2020-01-16T01:55:03,42.805,6.029,0.004,0.005,-0.033,105.0,107.0,103.0,13.4,1505.3,327.5,-0.7,1.8,2470.231,13.32,0.006,38.7
2020-01-16T01:58:03,42.805,6.029,0.011,-0.009,-0.033,106.0,107.0,101.0,13.4,1505.3,328.2,-0.7,1.8,2470.22,13.32,0.014,129.3
2020-01-16T02:04:03,42.805,6.029,-0.003,0.006,-0.046,103.0,106.0,102.0,13.3,1505.3,323.7,-0.7,1.8,2470.307,13.31,0.006,333.4
2020-01-16T02:07:03,42.805,6.029,0.013,-0.005,-0.061,104.0,106.0,101.0,13.4,1505.3,327.0,-0.7,1.8,2470.239,13.32,0.013,111.0
2020-01-16T02:10:03,42.805,6.029,-0.005,-0.008,-0.016,105.0,107.0,101.0,13.4,1505.3,324.9,-0.7,1.8,2470.209,13.32,0.009,212.0
2020-01-16T02:13:03,42.805,6.029,0.004,0.01,-0.031,105.0,108.0,101.0,13.4,1505.3,324.5,-0.7,1.9,2470.229,13.32,0.01,21.8
2020-01-16T02:16:03,42.805,6.029,0.006,-0.001,-0.033,105.0,106.0,102.0,13.3,1505.3,328.2,-0.7,1.9,2470.241,13.33,0.006,99.5
2020-01-16T02:19:03,42.805,6.029,0.005,0.0,-0.026,105.0,107.0,101.0,13.4,1505.3,323.4,-0.7,1.8,2470.181,13.33,0.005,90.0
2020-01-16T02:22:03,42.805,6.029,0.016,-0.01,-0.015,105.0,107.0,102.0,13.3,1505.3,327.1,-0.7,1.9,2470.23,13.33,0.018,122.0
2020-01-16T02:25:03,42.805,6.029,0.02,0.0,0.022,105.0,106.0,103.0,13.3,1505.3,328.1,-0.7,1.8,2470.188,13.33,0.02,90.0
2020-01-16T02:28:03,42.805,6.029,0.0,0.004,0.013,106.0,107.0,102.0,13.3,1505.3,324.7,-0.7,1.9,2470.225,13.33,0.004,0.0
2020-01-16T02:31:03,42.805,6.029,0.018,-0.025,-0.032,104.0,108.0,102.0,13.4,1505.3,327.9,-0.7,1.8,2470.223,13.33,0.03,144.2
2020-01-16T02:34:03,42.805,6.029,0.015,-0.007,-0.031,104.0,108.0,104.0,13.4,1505.3,325.3,-0.7,1.9,2470.202,13.33,0.016,115.0
2020-01-16T02:37:03,42.805,6.029,0.019,0.011,-0.012,106.0,109.0,102.0,13.4,1505.3,328.1,-0.7,1.8,2470.174,13.33,0.021,59.9
2020-01-16T02:40:03,42.805,6.029,0.023,-0.014,-0.028,105.0,107.0,102.0,13.4,1505.3,326.6,-0.7,1.8,2470.223,13.33,0.026,121.3
2020-01-16T02:43:03,42.805,6.029,0.034,-0.007,-0.001,106.0,107.0,103.0,13.3,1505.3,327.9,-0.7,1.8,2470.153,13.33,0.034,101.6
2020-01-16T02:46:03,42.805,6.029,0.019,0.012,0.017,106.0,107.0,101.0,13.4,1505.3,324.9,-0.7,1.8,2470.181,13.33,0.022,57.7
2020-01-16T02:49:03,42.805,6.029,0.053,-0.018,-0.007,103.0,108.0,101.0,13.4,1505.3,326.4,-0.7,1.8,2470.219,13.33,0.055,108.8
2020-01-16T02:52:03,42.805,6.029,0.037,0.006,-0.023,105.0,108.0,102.0,13.3,1505.3,326.2,-0.7,1.8,2470.181,13.33,0.037,80.8
2020-01-16T02:55:03,42.805,6.029,0.035,0.018,-0.039,105.0,108.0,102.0,13.4,1505.3,327.2,-0.7,1.8,2470.15,13.33,0.039,62.8
2020-01-16T02:58:03,42.805,6.029,0.024,0.004,-0.002,105.0,108.0,101.0,13.4,1505.3,326.9,-0.7,1.9,2470.195,13.33,0.024,80.5
2020-01-16T03:04:03,42.805,6.029,-0.003,0.005,-0.034,104.0,107.0,103.0,13.3,1505.3,325.0,-0.7,1.8,2470.228,13.31,0.005,329.0
2020-01-16T03:07:03,42.805,6.029,0.035,-0.013,-0.012,105.0,108.0,101.0,13.4,1505.3,328.3,-0.7,1.8,2470.192,13.32,0.037,110.4
2020-01-16T03:10:03,42.805,6.029,0.018,0.01,-0.017,107.0,108.0,101.0,13.3,1505.3,326.6,-0.7,1.9,2470.208,13.32,0.02,60.9
2020-01-16T03:13:03,42.805,6.029,0.04,0.005,-0.013,105.0,108.0,102.0,13.3,1505.3,323.5,-0.7,1.8,2470.151,13.33,0.04,82.9
2020-01-16T03:16:03,42.805,6.029,0.013,0.004,0.002,105.0,108.0,102.0,13.4,1505.3,324.8,-0.7,1.8,2470.199,13.33,0.013,72.9
2020-01-16T03:19:03,42.805,6.029,0.036,-0.01,0.005,105.0,108.0,101.0,13.4,1505.3,323.5,-0.7,1.8,2470.173,13.33,0.037,105.5
2020-01-16T03:22:03,42.805,6.029,0.048,-0.005,-0.015,104.0,108.0,102.0,13.3,1505.3,327.3,-0.7,1.8,2470.177,13.33,0.048,95.9
2020-01-16T03:25:03,42.805,6.029,0.041,0.0,0.015,105.0,107.0,103.0,13.4,1505.3,326.3,-0.7,1.8,2470.168,13.33,0.041,90.0
2020-01-16T03:28:03,42.805,6.029,0.016,0.004,0.021,104.0,108.0,102.0,13.4,1505.3,325.8,-0.7,1.8,2470.186,13.33,0.016,76.0
2020-01-16T03:31:03,42.805,6.029,0.03,-0.001,0.017,104.0,107.0,104.0,13.4,1505.3,326.9,-0.7,1.8,2470.146,13.33,0.03,91.9
2020-01-16T03:34:03,42.805,6.029,0.021,-0.002,-0.015,106.0,108.0,103.0,13.4,1505.3,323.2,-0.7,1.8,2470.16,13.33,0.021,95.4
2020-01-16T03:37:03,42.805,6.029,0.02,0.017,-0.004,106.0,107.0,101.0,13.4,1505.3,325.4,-0.7,1.8,2470.203,13.33,0.026,49.6
2020-01-16T03:40:03,42.805,6.029,0.008,0.0,-0.022,105.0,107.0,102.0,13.4,1505.3,327.4,-0.7,1.8,2470.152,13.33,0.008,90.0
2020-01-16T03:43:03,42.805,6.029,0.028,-0.01,-0.019,105.0,107.0,100.0,13.3,1505.3,324.2,-0.7,1.8,2470.154,13.33,0.029,109.6
2020-01-16T03:46:03,42.805,6.029,0.03,0.001,-0.024,105.0,108.0,102.0,13.3,1505.3,327.2,-0.7,1.8,2470.174,13.33,0.03,88.1
2020-01-16T03:49:03,42.805,6.029,0.042,-0.004,0.011,105.0,108.0,102.0,13.4,1505.3,325.3,-0.7,1.8,2470.156,13.33,0.042,95.4
2020-01-16T03:52:03,42.805,6.029,-0.011,-0.012,-0.051,105.0,108.0,102.0,13.4,1505.3,326.1,-0.7,1.8,2470.183,13.33,0.016,222.5
2020-01-16T03:55:03,42.805,6.029,0.05,0.013,-0.003,105.0,107.0,103.0,13.4,1505.3,324.9,-0.7,1.8,2470.178,13.33,0.051,75.4
2020-01-16T03:58:03,42.805,6.029,0.004,0.008,-0.008,104.0,108.0,102.0,13.3,1505.3,327.8,-0.7,1.8,2470.147,13.33,0.008,26.6
2020-01-16T04:04:03,42.805,6.029,0.027,-0.003,0.002,105.0,107.0,102.0,13.3,1505.3,325.0,-0.8,1.8,2470.183,13.31,0.027,96.3
2020-01-16T04:07:03,42.805,6.029,0.017,-0.007,-0.018,104.0,108.0,103.0,13.3,1505.3,326.7,-0.7,1.9,2470.197,13.32,0.018,112.4
2020-01-16T04:10:03,42.805,6.029,0.018,0.002,-0.035,105.0,108.0,102.0,13.3,1505.3,327.2,-0.7,1.8,2470.168,13.32,0.018,83.7
2020-01-16T04:13:03,42.805,6.029,0.017,0.0,-0.011,106.0,107.0,103.0,13.4,1505.3,323.8,-0.7,1.8,2470.112,13.33,0.017,90.0
2020-01-16T04:16:03,42.805,6.029,0.005,-0.006,-0.051,106.0,108.0,102.0,13.3,1505.3,323.7,-0.7,1.8,2470.141,13.33,0.007,140.2
2020-01-16T04:19:03,42.805,6.029,0.024,-0.019,-0.025,106.0,106.0,102.0,13.4,1505.3,324.2,-0.7,1.8,2470.167,13.33,0.03,128.4
2020-01-16T04:22:03,42.805,6.029,0.029,-0.02,-0.033,105.0,108.0,104.0,13.3,1505.3,325.7,-0.7,1.8,2470.135,13.33,0.035,124.6
2020-01-16T04:25:03,42.805,6.029,0.01,0.001,-0.024,104.0,108.0,102.0,13.4,1505.3,327.6,-0.7,1.8,2470.178,13.33,0.01,84.3
2020-01-16T04:28:03,42.805,6.029,-0.003,-0.003,-0.015,104.0,108.0,103.0,13.3,1505.3,323.8,-0.7,1.8,2470.174,13.33,0.004,225.0
2020-01-16T04:31:03,42.805,6.029,0.005,-0.02,-0.016,106.0,107.0,102.0,13.4,1505.3,324.6,-0.7,1.8,2470.12,13.33,0.02,166.0
2020-01-16T04:34:03,42.805,6.029,0.017,-0.003,-0.009,106.0,108.0,101.0,13.4,1505.3,324.0,-0.7,1.9,2470.146,13.33,0.017,100.0
2020-01-16T04:37:03,42.805,6.029,0.029,-0.006,-0.026,106.0,107.0,102.0,13.4,1505.3,326.2,-0.7,1.8,2470.174,13.33,0.029,101.7
2020-01-16T04:40:03,42.805,6.029,0.02,0.0,-0.029,106.0,107.0,103.0,13.4,1505.3,327.0,-0.7,1.8,2470.168,13.33,0.02,90.0
2020-01-16T04:43:03,42.805,6.029,0.005,-0.001,-0.031,105.0,108.0,101.0,13.4,1505.3,328.1,-0.7,1.8,2470.105,13.33,0.005,101.3
2020-01-16T04:46:03,42.805,6.029,0.011,-0.01,-0.027,106.0,108.0,103.0,13.4,1505.3,327.9,-0.7,1.9,2470.119,13.33,0.014,132.3
2020-01-16T04:49:03,42.805,6.029,-0.002,-0.015,-0.041,106.0,109.0,103.0,13.3,1505.3,327.9,-0.7,1.8,2470.179,13.33,0.015,187.6
2020-01-16T04:52:03,42.805,6.029,0.001,-0.013,-0.034,106.0,108.0,103.0,13.3,1505.3,325.2,-0.7,1.8,2470.151,13.33,0.013,175.6
2020-01-16T04:55:03,42.805,6.029,0.022,-0.002,-0.017,108.0,108.0,102.0,13.4,1505.3,324.8,-0.7,1.8,2470.132,13.33,0.022,95.2
2020-01-16T04:58:03,42.805,6.029,0.025,-0.019,-0.051,107.0,106.0,102.0,13.4,1505.3,327.7,-0.7,1.8,2470.115,13.33,0.031,127.2
2020-01-16T05:04:03,42.805,6.029,0.008,0.0,-0.014,106.0,108.0,104.0,13.4,1505.3,326.0,-0.8,1.8,2470.145,13.31,0.008,90.0
2020-01-16T05:07:03,42.805,6.029,0.007,0.005,-0.004,105.0,110.0,102.0,13.4,1505.3,328.4,-0.7,1.8,2470.139,13.32,0.008,54.5
2020-01-16T05:10:03,42.805,6.029,0.017,0.003,-0.015,106.0,109.0,103.0,13.3,1505.3,323.8,-0.7,1.9,2470.162,13.32,0.017,80.0
2020-01-16T05:13:03,42.805,6.029,0.009,-0.005,-0.014,104.0,109.0,102.0,13.4,1505.3,325.2,-0.7,1.8,2470.143,13.32,0.01,119.1
2020-01-16T05:16:03,42.805,6.029,0.02,-0.013,-0.004,107.0,110.0,103.0,13.4,1505.3,328.2,-0.7,1.8,2470.147,13.33,0.023,123.0
2020-01-16T05:19:03,42.805,6.029,0.003,0.003,0.004,106.0,110.0,102.0,13.4,1505.3,323.8,-0.7,1.8,2470.142,13.33,0.004,45.0
2020-01-16T05:22:03,42.805,6.029,0.006,-0.003,0.023,107.0,109.0,103.0,13.4,1505.3,323.3,-0.7,1.8,2470.134,13.33,0.006,116.6
2020-01-16T05:25:03,42.805,6.029,0.003,-0.007,-0.017,105.0,110.0,102.0,13.4,1505.3,326.4,-0.8,1.8,2470.15,13.33,0.007,156.8
2020-01-16T05:28:03,42.805,6.029,0.026,-0.004,-0.01,106.0,109.0,102.0,13.4,1505.3,326.8,-0.7,1.8,2470.129,13.33,0.026,98.7
2020-01-16T05:31:03,42.805,6.029,0.019,-0.004,-0.004,106.0,108.0,102.0,13.3,1505.3,327.4,-0.7,1.8,2470.123,13.33,0.019,101.9
2020-01-16T05:34:03,42.805,6.029,-0.001,-0.012,-0.021,108.0,107.0,103.0,13.4,1505.3,328.3,-0.7,1.8,2470.136,13.33,0.012,184.8
2020-01-16T05:37:03,42.805,6.029,0.01,0.003,-0.048,106.0,109.0,102.0,13.4,1505.3,324.3,-0.7,1.9,2470.139,13.33,0.01,73.3
2020-01-16T05:40:03,42.805,6.029,0.015,-0.022,-0.043,104.0,108.0,102.0,13.4,1505.3,327.3,-0.7,1.8,2470.148,13.33,0.026,145.7
2020-01-16T05:43:03,42.805,6.029,-0.005,0.0,-0.049,105.0,108.0,104.0,13.4,1505.3,324.8,-0.7,1.9,2470.141,13.33,0.005,270.0
2020-01-16T05:46:03,42.805,6.029,-0.004,-0.001,-0.06,105.0,110.0,102.0,13.4,1505.3,325.9,-0.7,1.8,2470.14,13.33,0.004,256.0
2020-01-16T05:49:03,42.805,6.029,0.013,0.01,-0.026,107.0,108.0,104.0,13.4,1505.3,324.4,-0.7,1.8,2470.16,13.33,0.016,52.4
2020-01-16T05:52:03,42.805,6.029,0.007,0.001,-0.056,106.0,108.0,103.0,13.4,1505.3,326.4,-0.8,1.8,2470.128,13.33,0.007,81.9
2020-01-16T05:55:03,42.805,6.029,0.01,0.0,-0.001,105.0,107.0,102.0,13.4,1505.3,326.9,-0.7,1.8,2470.131,13.33,0.01,90.0
2020-01-16T05:58:03,42.805,6.029,-0.004,0.009,-0.011,108.0,108.0,104.0,13.4,1505.3,328.4,-0.7,1.8,2470.102,13.33,0.009,336.0
2020-01-16T06:04:03,42.805,6.029,0.012,-0.008,-0.045,107.0,108.0,102.0,13.4,1505.3,327.3,-0.8,1.8,2470.166,13.31,0.014,123.7
2020-01-16T06:07:03,42.805,6.029,0.001,0.013,-0.054,105.0,109.0,103.0,13.4,1505.3,324.4,-0.7,1.8,2470.185,13.32,0.013,4.4
2020-01-16T06:10:03,42.805,6.029,0.015,-0.017,-0.038,107.0,109.0,102.0,13.4,1505.3,324.4,-0.7,1.8,2470.14,13.32,0.022,138.6
2020-01-16T06:13:03,42.805,6.029,0.023,-0.002,0.004,106.0,108.0,102.0,13.4,1505.3,326.4,-0.7,1.8,2470.187,13.33,0.023,95.0
2020-01-16T06:16:03,42.805,6.029,-0.007,0.002,-0.028,107.0,108.0,101.0,13.4,1505.3,324.3,-0.7,1.8,2470.134,13.33,0.007,285.9
2020-01-16T06:19:03,42.805,6.029,0.014,-0.005,-0.003,104.0,108.0,104.0,13.3,1505.3,324.8,-0.7,1.8,2470.176,13.33,0.014,109.6
2020-01-16T06:22:03,42.805,6.029,0.006,0.008,-0.015,106.0,107.0,103.0,13.4,1505.3,326.7,-0.7,1.8,2470.108,13.33,0.01,36.9
2020-01-16T06:25:03,42.805,6.029,0.03,0.005,-0.005,104.0,108.0,103.0,13.4,1505.3,328.2,-0.7,1.8,2470.174,13.33,0.03,80.5
2020-01-16T06:28:03,42.805,6.029,0.019,-0.006,-0.043,106.0,110.0,102.0,13.4,1505.3,325.4,-0.7,1.8,2470.151,13.33,0.019,107.5
2020-01-16T06:31:03,42.805,6.029,0.012,-0.008,-0.029,105.0,109.0,102.0,13.4,1505.3,326.3,-0.7,1.8,2470.169,13.33,0.014,123.7
2020-01-16T06:34:03,42.805,6.029,0.013,-0.009,-0.006,107.0,106.0,102.0,13.4,1505.3,323.7,-0.7,1.8,2470.155,13.33,0.015,124.7
2020-01-16T06:37:03,42.805,6.029,-0.029,-0.023,-0.049,106.0,108.0,102.0,13.4,1505.3,328.1,-0.7,1.8,2470.155,13.33,0.037,231.6
2020-01-16T06:40:03,42.805,6.029,0.028,0.014,-0.018,106.0,109.0,102.0,13.4,1505.3,325.1,-0.7,1.9,2470.158,13.33,0.031,63.4
2020-01-16T06:43:03,42.805,6.029,-0.008,-0.006,-0.038,106.0,108.0,102.0,13.4,1505.3,324.8,-0.7,1.8,2470.126,13.33,0.01,233.1
2020-01-16T06:49:03,42.805,6.029,0.0,0.008,-0.012,106.0,107.0,102.0,13.4,1505.3,324.6,-0.7,1.8,2470.171,13.31,0.008,0.0
2020-01-16T06:52:03,42.805,6.029,0.021,-0.009,-0.015,106.0,107.0,102.0,13.4,1505.3,322.9,-0.7,1.8,2470.183,13.32,0.022,113.2
2020-01-16T06:55:03,42.805,6.029,-0.011,0.008,-0.011,105.0,108.0,101.0,13.4,1505.3,324.9,-0.7,1.8,2470.124,13.32,0.013,306.0
2020-01-16T06:58:03,42.805,6.029,0.001,-0.008,-0.046,104.0,108.0,101.0,13.4,1505.3,323.4,-0.7,1.8,2470.176,13.32,0.008,172.9
2020-01-16T07:04:03,42.805,6.029,-0.006,-0.013,-0.016,106.0,108.0,102.0,13.4,1505.3,323.8,-0.7,1.8,2470.235,13.31,0.014,204.8
2020-01-16T07:07:03,42.805,6.029,0.004,-0.007,-0.017,103.0,107.0,102.0,13.4,1505.3,325.7,-0.7,1.8,2470.204,13.32,0.008,150.3
2020-01-16T07:10:03,42.805,6.029,-0.013,-0.02,-0.052,105.0,108.0,102.0,13.3,1505.3,323.2,-0.7,1.8,2470.201,13.32,0.023,213.0
2020-01-16T07:13:03,42.805,6.029,0.005,0.011,-0.038,104.0,107.0,101.0,13.3,1505.3,327.0,-0.7,1.8,2470.191,13.33,0.012,24.4
2020-01-16T07:16:03,42.805,6.029,0.011,-0.007,-0.032,103.0,107.0,102.0,13.4,1505.3,328.3,-0.7,1.9,2470.15,13.33,0.013,122.5
2020-01-16T07:19:03,42.805,6.029,0.005,-0.028,-0.041,103.0,107.0,103.0,13.4,1505.3,325.3,-0.7,1.9,2470.214,13.33,0.028,169.9
2020-01-16T07:22:03,42.805,6.029,0.014,-0.009,-0.003,105.0,108.0,102.0,13.4,1505.3,326.3,-0.7,1.8,2470.193,13.33,0.016,122.7
2020-01-16T07:25:03,42.805,6.029,0.011,0.004,-0.033,106.0,109.0,102.0,13.3,1505.3,328.1,-0.7,1.9,2470.218,13.33,0.011,70.0
2020-01-16T07:28:03,42.805,6.029,0.005,0.003,0.001,104.0,108.0,102.0,13.3,1505.3,324.4,-0.7,1.8,2470.209,13.33,0.005,59.0
2020-01-16T07:31:03,42.805,6.029,0.016,0.007,-0.046,105.0,108.0,103.0,13.4,1505.3,324.1,-0.7,1.8,2470.194,13.33,0.017,66.4
2020-01-16T07:34:03,42.805,6.029,0.002,0.012,-0.01,105.0,108.0,102.0,13.4,1505.4,328.5,-0.7,1.9,2470.195,13.34,0.012,9.5
2020-01-16T07:37:03,42.805,6.029,0.0,0.01,0.004,104.0,107.0,102.0,13.4,1505.4,324.4,-0.7,1.9,2470.202,13.34,0.01,0.0
2020-01-16T07:40:03,42.805,6.029,0.007,0.014,0.005,105.0,108.0,103.0,13.4,1505.4,323.4,-0.7,1.8,2470.193,13.34,0.015,26.6
2020-01-16T07:43:03,42.805,6.029,0.015,0.017,-0.029,105.0,108.0,102.0,13.4,1505.4,324.3,-0.7,1.9,2470.202,13.34,0.022,41.4
2020-01-16T07:46:03,42.805,6.029,0.016,0.008,-0.001,104.0,108.0,102.0,13.4,1505.4,324.3,-0.7,1.8,2470.224,13.34,0.017,63.4
2020-01-16T07:49:03,42.805,6.029,-0.001,0.016,-0.001,106.0,107.0,101.0,13.4,1505.4,325.7,-0.7,1.8,2470.188,13.34,0.016,356.4
2020-01-16T07:52:03,42.805,6.029,0.005,0.008,-0.047,104.0,107.0,102.0,13.4,1505.4,324.0,-0.7,1.8,2470.182,13.34,0.009,32.0
2020-01-16T07:55:03,42.805,6.029,0.028,0.017,0.003,107.0,108.0,102.0,13.4,1505.4,325.8,-0.7,1.8,2470.192,13.34,0.032,58.7
2020-01-16T07:58:03,42.805,6.029,0.005,0.015,-0.044,105.0,109.0,101.0,13.4,1505.4,325.7,-0.7,1.8,2470.25,13.34,0.015,18.4
2020-01-16T08:04:03,42.805,6.029,0.008,0.01,-0.032,105.0,108.0,101.0,13.4,1505.3,325.7,-0.8,1.8,2470.246,13.32,0.012,38.7
2020-01-16T08:07:03,42.805,6.029,0.012,0.022,-0.022,104.0,107.0,102.0,13.4,1505.3,323.2,-0.7,1.9,2470.28,13.32,0.025,28.6
2020-01-16T08:10:03,42.805,6.029,0.005,0.002,-0.004,105.0,107.0,101.0,13.4,1505.3,326.6,-0.7,1.9,2470.256,13.33,0.005,68.2
2020-01-16T08:13:03,42.805,6.029,0.013,0.003,-0.038,103.0,107.0,102.0,13.4,1505.3,324.9,-0.7,1.8,2470.282,13.33,0.013,77.0
2020-01-16T08:16:03,42.805,6.029,0.0,0.0,-0.032,104.0,106.0,100.0,13.3,1505.3,325.8,-0.7,1.8,2470.258,13.33,0.0,0.0
2020-01-16T08:19:03,42.805,6.029,0.028,0.011,-0.008,103.0,107.0,101.0,13.4,1505.3,324.4,-0.7,1.8,2470.241,13.33,0.03,68.6
2020-01-16T08:22:03,42.805,6.029,-0.001,0.016,-0.013,104.0,106.0,101.0,13.3,1505.3,325.7,-0.7,1.8,2470.29,13.33,0.016,356.4
2020-01-16T08:25:03,42.805,6.029,0.005,0.028,-0.024,107.0,107.0,101.0,13.3,1505.4,326.3,-0.7,1.8,2470.257,13.34,0.028,10.1
2020-01-16T08:28:03,42.805,6.029,0.019,-0.001,-0.025,103.0,107.0,101.0,13.4,1505.4,323.6,-0.7,1.8,2470.266,13.34,0.019,93.0
2020-01-16T08:31:03,42.805,6.029,0.004,0.016,-0.025,105.0,107.0,101.0,13.3,1505.4,327.4,-0.7,1.8,2470.252,13.34,0.016,14.0
2020-01-16T08:34:03,42.805,6.029,0.01,0.017,0.011,104.0,107.0,100.0,13.4,1505.4,324.9,-0.8,1.8,2470.265,13.34,0.019,30.5
2020-01-16T08:37:03,42.805,6.029,-0.004,0.002,-0.016,102.0,107.0,101.0,13.3,1505.4,324.1,-0.7,1.8,2470.25,13.34,0.004,296.6
2020-01-16T08:40:03,42.805,6.029,0.014,0.015,0.005,103.0,107.0,103.0,13.4,1505.4,327.6,-0.7,1.8,2470.266,13.34,0.02,43.0
2020-01-16T08:43:03,42.805,6.029,0.013,0.006,-0.039,103.0,107.0,102.0,13.3,1505.4,327.3,-0.7,1.8,2470.263,13.34,0.014,65.2
2020-01-16T08:46:03,42.805,6.029,0.014,0.011,-0.008,107.0,108.0,101.0,13.4,1505.4,326.0,-0.7,1.8,2470.285,13.34,0.017,51.8
2020-01-16T08:49:03,42.805,6.029,0.017,0.001,-0.013,104.0,108.0,102.0,13.3,1505.4,325.7,-0.7,1.8,2470.271,13.34,0.017,86.6
2020-01-16T08:52:03,42.805,6.029,0.016,0.022,0.005,104.0,106.0,101.0,13.4,1505.4,326.9,-0.7,1.8,2470.248,13.34,0.027,36.0
2020-01-16T08:55:03,42.805,6.029,0.023,0.003,-0.038,104.0,107.0,102.0,13.4,1505.4,325.3,-0.7,1.8,2470.298,13.34,0.023,82.6
2020-01-16T08:58:03,42.805,6.029,0.043,0.011,-0.016,104.0,106.0,101.0,13.3,1505.4,328.2,-0.7,1.8,2470.28,13.34,0.044,75.7
2020-01-16T09:04:03,42.805,6.029,0.029,0.004,-0.007,106.0,106.0,102.0,13.3,1505.3,324.1,-0.7,1.8,2470.33,13.33,0.029,82.2
2020-01-16T09:07:03,42.805,6.029,0.012,0.008,0.009,106.0,105.0,102.0,13.4,1505.3,326.6,-0.7,1.8,2470.3,13.33,0.014,56.3
2020-01-16T09:10:03,42.805,6.029,0.014,0.007,-0.01,106.0,107.0,102.0,13.4,1505.4,323.1,-0.7,1.8,2470.292,13.34,0.015,63.4
2020-01-16T09:13:03,42.805,6.029,0.015,0.021,-0.018,101.0,108.0,100.0,13.4,1505.4,326.5,-0.7,1.8,2470.31,13.34,0.025,35.5
2020-01-16T09:16:03,42.805,6.029,0.012,0.01,0.007,104.0,107.0,102.0,13.4,1505.4,326.6,-0.7,1.8,2470.354,13.34,0.015,50.2
2020-01-16T09:19:03,42.805,6.029,0.019,0.008,-0.031,105.0,109.0,102.0,13.3,1505.4,326.0,-0.7,1.8,2470.314,13.34,0.02,67.2
2020-01-16T09:22:03,42.805,6.029,0.013,0.006,-0.014,106.0,109.0,103.0,13.4,1505.4,322.7,-0.7,1.8,2470.322,13.34,0.014,65.2
2020-01-16T09:25:03,42.805,6.029,0.021,0.02,-0.002,106.0,109.0,101.0,13.4,1505.4,326.1,-0.7,1.8,2470.306,13.34,0.028,46.4
2020-01-16T09:28:03,42.805,6.029,0.015,0.01,-0.015,104.0,108.0,103.0,13.4,1505.4,325.3,-0.7,1.8,2470.319,13.34,0.018,56.3
2020-01-16T09:31:03,42.805,6.029,0.018,0.019,-0.018,104.0,107.0,101.0,13.3,1505.4,326.8,-0.7,1.8,2470.301,13.34,0.026,43.5
2020-01-16T09:34:03,42.805,6.029,0.022,0.004,-0.025,103.0,107.0,101.0,13.3,1505.4,325.2,-0.7,1.8,2470.314,13.34,0.022,79.7
2020-01-16T09:37:03,42.805,6.029,0.021,0.012,0.002,103.0,108.0,101.0,13.3,1505.4,327.4,-0.7,1.8,2470.327,13.34,0.024,60.3
2020-01-16T09:40:03,42.805,6.029,0.027,0.011,-0.026,104.0,107.0,102.0,13.3,1505.4,326.5,-0.7,1.8,2470.297,13.34,0.029,67.8
2020-01-16T09:43:03,42.805,6.029,0.041,0.02,-0.009,104.0,108.0,102.0,13.4,1505.4,326.5,-0.7,1.8,2470.354,13.34,0.045,64.0
2020-01-16T09:46:03,42.805,6.029,0.019,0.02,-0.01,102.0,108.0,101.0,13.3,1505.4,325.3,-0.7,1.8,2470.364,13.34,0.027,43.5
2020-01-16T09:49:03,42.805,6.029,0.001,0.005,-0.038,107.0,108.0,101.0,13.4,1505.4,324.7,-0.7,1.8,2470.356,13.34,0.005,11.3
2020-01-16T09:52:03,42.805,6.029,0.031,0.019,0.02,103.0,107.0,101.0,13.3,1505.4,323.1,-0.7,1.8,2470.341,13.34,0.036,58.5
2020-01-16T09:55:03,42.805,6.029,0.024,0.021,-0.009,104.0,108.0,101.0,13.3,1505.4,325.4,-0.8,1.8,2470.344,13.34,0.031,48.8
2020-01-16T09:58:03,42.805,6.029,0.004,0.027,-0.026,104.0,104.0,101.0,13.4,1505.4,323.5,-0.7,1.9,2470.33,13.34,0.027,8.4
2020-01-16T10:04:03,42.805,6.029,0.021,0.01,-0.02,103.0,108.0,100.0,13.3,1505.3,323.1,-0.7,1.8,2470.354,13.33,0.023,64.5
2020-01-16T10:07:03,42.805,6.029,0.032,0.005,0.001,104.0,106.0,102.0,13.4,1505.3,326.2,-0.7,1.8,2470.346,13.33,0.032,81.1
2020-01-16T10:10:03,42.805,6.029,0.037,0.008,-0.001,105.0,107.0,101.0,13.4,1505.4,325.9,-0.7,1.8,2470.365,13.34,0.037,77.8